Location: Juan XXIII
(28.4500°N, 16.2833°W)
Time: 02:42:30
(UTC+00:00)

Daily predictions for brighter satellites

Satellite Brightness Start Highest point End
(mag) Time Altitude Azimuth Time Altitude Azimuth Time Altitude Azimuth
SL-16 R/B 3.7 05:25:36 25° S 05:25:36 25° S 05:27:54 10° S
Hubble Space Telescope 3.5 05:22:55 14° SSE 05:22:55 14° SSE 05:25:01 10° ESE
Nadezhda 4 Rocket 4.2 05:22:47 40° NNE 05:24:55 64° E 05:30:58 10° SSE
Skynet4D Del rocket 4.3 05:26:16 45° SSE 05:26:16 45° SSE 05:31:15 10° ESE
Centaur AC-42 3.7 05:24:46 37° SSW 05:27:02 50° SSE 05:54:09 10° E
Cosmos 1461 4.3 05:30:07 38° ENE 05:30:07 38° ENE 05:33:50 10° SE
CZ-4C R/B 3.0 05:28:20 54° NNW 05:30:30 88° ENE 05:38:59 10° SSE
Cosmos 2242 Rocket 4.2 05:41:25 49° SSE 05:41:25 49° SSE 05:44:44 10° S
Cosmos 1190 Rocket 4.1 05:44:05 64° SSW 05:44:05 64° SSW 05:48:37 10° S
Lacrosse 5 4.3 05:48:19 10° SSW 05:48:19 10° SSW 05:48:27 10° SSW
Cosmos 676 Rocket 4.4 05:44:00 38° N 05:45:52 63° ENE 05:51:06 10° SSE
Cosmos 2263 Rocket 4.0 05:54:40 16° N 05:54:40 16° N 05:55:49 10° N
Cosmos 1954 Rocket 4.2 05:50:49 34° N 05:53:06 70° ENE 05:58:22 10° SSE
Cosmos 1602 4.1 05:50:30 10° S 05:54:14 59° E 05:55:08 44° NE
Cosmos 2084 Rocket 3.4 05:54:47 84° SSE 05:54:47 84° SSE 05:59:01 10° SSE
Okean 1-7 3.9 05:52:46 19° NNE 05:55:37 49° E 05:59:50 10° SSE
BREEZE-M DEB (TANK) 3.9 05:58:34 21° S 05:58:34 21° S 05:59:36 10° S
Cosmos 1634 Rocket 3.9 05:54:11 10° S 06:00:24 88° W 06:06:37 10° N
Meteor 1-20 Rocket 4.2 05:55:37 10° SSW 06:01:23 66° W 06:07:13 10° N
CZ-4B DEB 4.4 06:09:06 10° NNE 06:14:39 76° ESE 06:20:11 10° S
Okean 1 3.8 06:12:58 11° N 06:16:39 59° E 06:20:34 10° SSE
USA 234 4.2 06:12:12 10° NNE 06:17:19 25° NW 06:17:41 25° NW
Cosmos 1140 Rocket 3.9 06:18:09 37° WNW 06:19:00 40° W 06:23:52 10° S
FENGYUN 3A 3.8 06:13:46 10° NNE 06:19:09 73° ESE 06:24:29 10° S
FALCON 9 R/B 3.7 06:15:11 30° WNW 06:19:27 64° N 06:46:32 10° E
STARLINK 1044 4.2 06:19:49 26° NNE 06:20:23 28° NE 06:22:57 10° ESE
SJ-12 3.7 06:16:38 10° N 06:20:44 80° WNW 06:24:47 10° SSW
Cosmos 1844 Rocket 3.2 06:16:49 10° S 06:22:19 62° ESE 06:27:48 10° NNE
Cosmos 1484 Rocket 2.9 06:23:10 44° WNW 06:23:22 45° WNW 06:26:59 10° SSW
Cosmos 2195 Rocket 4.4 06:17:46 10° N 06:24:06 79° W 06:30:22 10° S
Cosmos 44 3.8 06:24:39 34° WNW 06:24:39 34° WNW 06:28:52 10° N
Cosmos 371 Rocket 3.2 06:24:05 10° SSW 06:28:53 79° WNW 06:33:45 10° NNE
METEOR-M 4.0 06:23:34 10° N 06:28:56 85° WNW 06:34:16 10° SSW
Cosmos 2142 Rocket 4.5 06:22:47 10° SSW 06:29:06 68° W 06:35:29 10° N
Cosmos 1092 Rocket 4.1 06:29:20 10° NNW 06:35:12 49° W 06:41:03 10° SSW
Cosmos 1850 Rocket 4.4 06:30:04 10° N 06:35:24 68° ENE 06:40:40 10° SSE
STARLINK 1022 4.4 06:33:31 18° NNW 06:35:44 38° NE 06:39:06 10° ESE
COSMO-SKYMED 1 2.5 06:33:49 10° S 06:38:08 80° W 06:42:29 10° NNW
CZ-4B R/B 3.4 06:33:17 10° NNE 06:38:57 82° ESE 06:44:36 10° S
STARLINK 1042 4.2 06:36:44 18° NNW 06:39:05 42° NE 06:42:31 10° ESE
ALOS 2.3 06:37:38 10° N 06:42:12 56° WNW 06:46:45 10° SSW
STARLINK 1056 4.1 06:40:01 17° NNW 06:42:29 46° NE 06:45:58 10° ESE
Meteor 1-18 Rocket 4.2 06:39:20 10° NNW 06:44:50 64° W 06:50:23 10° S
STARLINK 1054 3.9 06:43:16 16° NNW 06:45:54 51° NE 06:49:24 10° SE
Cosmos 1943 3.3 06:43:20 11° NNW 06:48:35 54° WSW 06:54:01 10° S
NOAA 6 3.9 06:43:45 10° N 06:48:53 76° WNW 06:54:00 10° SSW
STARLINK 1062 3.8 06:46:25 16° NNW 06:49:10 55° NE 06:52:42 10° SE
Cosmos 1733 Rocket 2.9 06:47:51 10° S 06:52:10 81° W 06:56:29 10° N
STARLINK 1053 3.6 06:49:52 15° NNW 06:52:45 62° NE 06:56:19 10° SE
STARLINK 1061 3.5 06:52:54 14° NW 06:55:56 68° NE 06:59:30 10° SE
Delta 198 4.2 06:53:19 13° WSW 06:56:53 39° SSW 07:00:29 10° ESE
Cosmos 1340 4.0 06:54:13 10° SW 06:56:55 19° WNW 06:59:39 10° NNW
Cosmos 1346 Rocket 3.9 06:54:55 10° SW 06:57:55 21° WNW 07:00:56 10° NNW
Meteor 1-11 Rocket 3.9 06:52:30 10° S 06:58:10 81° E 07:04:01 10° N
Cosmos 2221 Rocket 3.5 06:54:13 10° N 06:58:36 70° W 07:03:00 10° S
NOSS 3-2 (A) 3.2 06:53:22 10° SW 06:58:49 62° WNW 07:04:50 10° NNE
STARLINK 1067 3.4 06:56:11 13° NW 06:59:20 75° NE 07:02:56 10° SE
Starlink Launch 2 leader 3.4 06:59:25 19° W 07:00:32 28° SW 07:02:41 10° S
GPS 2-04 Rocket1 3.2 06:58:09 15° W 07:01:02 42° NNW 07:04:56 10° ENE
STARLINK 1058 3.3 06:59:24 12° NW 07:02:41 82° NE 07:06:18 10° SE
FALCON 9 DEB 3.7 07:02:30 17° W 07:03:29 22° SW 07:05:21 10° S
Hubble Space Telescope 1.8 06:59:45 10° SW 07:03:42 44° SSE 07:07:38 10° E
Starlink Launch 2 trailer 3.6 07:02:58 16° W 07:04:11 24° SW 07:06:15 10° S
Cosmos 1331 Rocket 4.4 07:00:01 10° SW 07:04:45 37° WNW 07:09:33 10° N
Helios 1A Rocket 3.2 07:02:13 10° N 07:06:01 41° WNW 07:09:48 10° SW
STARLINK 1043 3.2 07:02:40 11° NW 07:06:04 90° WSW 07:09:41 10° SE
Cosmos 1500 3.3 07:02:19 10° SSW 07:06:05 54° W 07:09:51 10° N
STARLINK 1065 3.2 07:05:52 11° NW 07:09:25 82° SW 07:13:01 10° SE
Okean O Rocket 2.1 07:05:35 10° N 07:09:38 37° WNW 07:13:42 10° SW
USA 238 DEB 3.9 07:03:34 10° SW 07:09:53 47° WNW 07:16:24 10° NNE
USA 238 3.8 07:03:40 10° SW 07:10:00 48° WNW 07:16:31 10° NNE
BREEZE-M DEB (TANK) 4.4 06:52:52 10° NW 07:12:14 54° WSW 07:16:44 10° SSE
Cosmos 44 Rocket 3.3 07:07:43 10° SW 07:12:37 66° WNW 07:17:27 10° NNE
STARLINK 1063 3.2 07:09:17 10° NW 07:12:54 74° SW 07:16:30 10° SE
OE (NEXTSAT) 4.4 07:11:27 10° NW 07:14:58 86° NE 07:18:29 10° SE
Geosat 4.0 07:10:37 10° SSE 07:15:35 67° WSW 07:20:35 10° NNW
CENTAUR R/B 2.6 07:10:07 10° SSW 07:15:38 75° ESE 07:21:59 10° NNE
Cosmos 2266 Rocket 4.4 07:09:43 10° N 07:15:51 69° E 07:21:52 10° SSE
STARLINK 1064 3.3 07:12:37 10° NW 07:16:13 67° SW 07:19:48 10° SSE
Meteor 1-5 Rocket 4.5 07:10:42 10° SSW 07:16:30 54° W 07:22:15 10° N
Cosmos 1515 3.9 07:13:25 10° NNW 07:17:06 49° W 07:20:47 10° SSW
STARLINK 1041 3.4 07:16:02 10° NW 07:19:37 60° SW 07:23:11 10° SSE
STARLINK 1038 3.5 07:19:29 10° NW 07:23:02 55° SW 07:26:34 10° SSE
deb Centaur AC-2 4.1 07:19:54 10° WSW 07:24:16 76° SSE 07:28:37 10° E
